SCP
0 0 0 0 0 0 0 0 0 0 0 0 0 0 0 0 0 0 0 0 0 0 0 0 0 0 0 0 0 0 0 0
0 0 0 0 0 0 0 0 0 0 0 0 0 0 0 0 0 0 0 0 0 0 0 0 0 0 0 0 0 0 0 0
0 0 0 0 0 0 0 0 0 0 0 0 0 0 0 0 0 0 0 0 0 0 0 0 0 0 0 0 0 0 0 0
0 0 0 0 0 0 0 0 0 0 0 0 0 0 0 0 0 0 0 0 0 0 0 0 0 0 0 0 0 0 0 0
0 0 0 0 0 0 0 0 0 0 0 0 0 0 0 0 0 0 0 0 0 0 0 0 0 0 0 0 0 0 0 0
0 0 0 0 0 0 0 0 0 0 0 0 0 0 0 0 0 0 0 0 0 0 0 0 0 0 0 0 0 0 0 0
0 0 0 0 0 0 0 0 0 0 0 0 0 0 0 0 0 0 0 0 0 0 0 0 0 0 0 0 0 0 0 0
0 0 0 0 0 0 0 0 0 0 0 0 0 0 0 0 0 0 0 0 0 0 0 0 0 0 0 0 0 0 0 0
0 0 0 0 0 0 0 0 0 0 0 0 0 0 0 0 0 0 0 0 0 0 0 0 0 0 0 0 0 0 0 0
0 0 0 0 0 0 0 0 0 0 0 0 0 0 0 0 0 0 0 0 0 0 0 0 0 0 0 0 0 0 0 0
0 0 0 0 0 0 0 0 0 0 0 0 0 0 0 0 0 0 0 0 0 0 0 0 0 0 0 0 0 0 0 0
0 0 0 0 0 0 0 0 0 0 0 0 0 0 0 0 0 0 0 0 0 0 0 0 0 0 0 0 0 0 0 0
0 0 0 0 0 0 0 0 0 0 0 0 0 0 0 0 0 0 0 0 0 0 0 0 0 0 0 0 0 0 0 0
0 0 0 0 0 0 0 0 0 0 0 0 0 0 0 0 0 0 0 0 0 0 0 0 0 0 0 0 0 0 0 0
0 0 0 0 0 0 0 0 0 0 0 0 0 0 0 0 0 0 0 0 0 0 0 0 0 0 0 0 0 0 0 0
0 0 0 0 0 0 0 0 0 0 0 0 0 0 0 0 0 0 0 0 0 0 0 0 0 0 0 0 0 0 0 0
0 0 0 0 0 0 0 0 0 0 0 0 0 0 0 0 0 0 0 0 0 0 0 0 0 0 0 0 0 0 0 0
0 0 0 0 0 0 0 0 0 0 0 0 0 0 0 0 0 0 0 0 0 0 0 0 0 0 0 0 0 0 0 0
0 0 0 0 0 0 0 0 0 0 0 0 0 0 0 0 0 0 0 0 0 0 0 0 0 0 0 0 0 0 0 0
0 0 0 0 0 0 0 0 0 0 0 0 0 0 0 0 0 0 0 0 0 0 0 0 0 0 0 0 0 0 0 0
Wind_Speed_500mb
44 48 53 56 59 64 63 59 62 66 67 66 65 62 58 54 47 41 38 36 32 30 27 24 24 29 36 42 50 59 65 71
40 46 53 58 58 56 55 57 57 58 60 64 66 64 61 56 49 43 40 37 33 31 27 24 25 31 36 44 52 60 67 69
39 43 56 60 61 58 57 55 52 53 58 63 65 65 63 58 51 45 41 38 34 31 27 25 25 30 36 44 52 60 67 67
41 46 52 61 62 58 56 54 50 55 60 62 65 66 63 58 52 47 43 39 36 32 27 26 26 29 35 44 53 59 65 64
43 52 55 58 61 60 54 49 48 56 60 63 65 64 61 55 52 49 45 40 36 32 28 27 26 28 34 44 52 57 60 59
50 56 63 66 70 73 63 51 50 56 63 65 62 61 59 58 56 51 46 39 36 34 30 27 25 27 34 42 51 56 60 59
61 62 68 74 77 82 77 67 61 59 64 64 63 63 62 60 57 53 46 42 39 36 32 27 24 26 33 42 49 54 59 63
75 74 77 79 76 76 76 75 67 66 67 65 65 66 64 61 59 55 47 43 39 38 33 27 25 26 30 39 46 51 55 59
83 83 80 79 85 82 83 84 73 73 72 68 69 67 64 63 61 53 48 44 41 40 34 29 28 25 28 35 43 47 52 56
68 79 81 78 76 81 89 85 76 76 76 72 70 68 66 68 60 54 48 45 42 39 37 32 28 25 27 31 38 44 48 52
37 44 49 59 66 74 80 85 80 77 77 71 71 68 69 63 58 53 48 43 42 42 40 36 31 27 25 28 35 39 44 46
39 41 43 48 47 55 67 84 78 74 68 70 70 67 63 59 57 52 49 45 45 43 43 39 34 30 26 25 31 36 42 43
51 41 40 34 39 44 60 66 70 69 68 68 67 65 63 60 56 55 52 49 47 46 45 42 40 33 27 25 28 32 37 39
55 51 40 36 30 28 42 57 60 60 62 62 63 64 63 62 61 60 56 53 50 49 46 45 42 36 30 25 26 28 33 34
68 57 51 40 32 29 28 29 37 51 59 61 63 63 63 63 61 60 58 54 52 51 50 45 46 39 33 27 26 26 27 32
67 65 59 50 34 31 28 28 32 38 47 55 61 65 66 65 63 62 59 56 51 45 45 43 48 40 35 31 27 25 24 26
61 61 61 59 50 35 31 35 32 37 45 52 59 64 66 66 65 64 63 61 55 52 51 46 45 43 40 35 31 26 22 22
68 59 58 57 58 48 41 39 33 33 40 48 55 60 63 65 66 73 69 67 62 62 56 52 48 46 44 40 35 31 27 20
64 64 54 51 49 47 56 45 40 33 36 46 54 55 55 61 70 73 72 68 62 64 61 58 55 53 51 47 45 40 33 25
62 59 59 54 44 45 51 49 43 45 44 45 47 45 53 63 70 69 66 60 58 56 57 58 60 59 56 56 55 43 39 32
Wind_Direction_500mb
209 207 204 206 208 213 218 222 225 226 228 231 235 239 240 244 252 262 268 268 271 272 274 273 282 297 309 317 323 325 326 323
210 206 201 200 202 206 213 220 226 230 232 235 238 238 240 244 250 259 262 263 266 268 268 267 282 299 311 320 326 326 325 327
214 211 209 207 208 211 216 221 229 235 237 239 239 239 241 243 248 255 257 258 261 262 261 266 282 299 313 321 326 327 326 334
221 218 214 213 213 216 222 226 233 238 240 240 239 238 239 242 246 252 250 252 254 256 256 264 281 300 314 322 327 328 331 334
228 230 227 226 224 224 229 233 241 242 242 240 238 238 240 242 244 245 244 247 250 252 250 261 281 300 314 322 327 331 333 333
234 234 234 235 232 233 237 243 249 247 244 242 239 238 237 238 239 237 240 243 245 247 247 259 280 301 314 323 328 332 333 339
243 246 249 244 239 237 241 250 249 247 246 241 236 234 234 234 233 231 235 238 241 243 245 257 277 298 313 323 330 333 336 337
266 257 261 251 242 241 245 253 254 252 245 239 234 232 231 229 226 228 232 236 239 240 242 252 273 292 310 321 329 333 337 337
283 282 279 268 258 256 253 253 252 248 241 235 231 229 227 224 223 225 229 234 236 237 241 250 267 285 303 318 327 333 337 340
293 287 286 279 272 264 258 248 244 242 239 233 228 225 222 220 221 224 227 230 234 236 242 248 261 278 296 314 324 331 336 341
315 310 297 289 276 267 260 244 237 242 238 232 227 223 220 219 220 223 226 230 232 237 242 249 255 268 284 304 318 327 333 343
325 323 319 310 290 265 256 240 241 247 237 226 222 220 217 218 219 221 225 229 233 237 241 247 252 261 273 293 312 324 332 343
349 344 341 329 307 283 258 247 244 245 228 218 216 214 213 215 217 221 225 229 232 236 238 246 248 252 263 283 303 318 331 343
351 353 355 349 331 302 273 255 248 236 222 216 214 213 213 216 219 223 226 230 233 236 239 243 245 248 255 271 292 310 325 339
350 348 345 349 352 328 292 273 254 228 221 216 215 216 217 221 225 229 232 233 235 235 239 237 242 243 250 260 278 297 317 334
341 340 336 332 339 343 325 284 255 249 239 228 222 222 223 226 231 235 239 242 245 247 246 240 239 242 246 253 266 284 306 323
324 327 331 328 324 334 325 305 268 250 251 241 234 232 231 232 236 240 243 243 244 243 238 236 236 232 239 243 253 265 281 305
313 315 318 320 323 316 311 302 286 254 249 249 244 238 237 239 242 244 244 246 244 242 240 238 240 237 236 238 242 251 262 278
313 311 306 309 319 320 294 282 283 273 252 248 246 243 243 246 248 248 246 243 246 246 242 239 234 234 234 236 237 238 245 254
311 311 308 304 302 302 296 289 276 271 264 256 246 241 242 247 250 249 247 246 249 249 244 239 234 231 232 235 240 238 239 244
Wind_Speed_850mb
44 48 53 56 59 64 63 59 62 66 67 66 65 62 58 54 47 41 38 36 32 30 27 24 24 29 36 42 50 59 65 71
40 46 53 58 58 56 55 57 57 58 60 64 66 64 61 56 49 43 40 37 33 31 27 24 25 31 36 44 52 60 67 69
39 43 56 60 61 58 57 55 52 53 58 63 65 65 63 58 51 45 41 38 34 31 27 25 25 30 36 44 52 60 67 67
41 46 52 61 62 58 56 54 50 55 60 62 65 66 63 58 52 47 43 39 36 32 27 26 26 29 35 44 53 59 65 64
43 52 55 58 61 60 54 49 48 56 60 63 65 64 61 55 52 49 45 40 36 32 28 27 26 28 34 44 52 57 60 59
50 56 63 66 70 73 63 51 50 56 63 65 62 61 59 58 56 51 46 39 36 34 30 27 25 27 34 42 51 56 60 59
61 62 68 74 77 82 77 67 61 59 64 64 63 63 62 60 57 53 46 42 39 36 32 27 24 26 33 42 49 54 59 63
75 74 77 79 76 76 76 75 67 66 67 65 65 66 64 61 59 55 47 43 39 38 33 27 25 26 30 39 46 51 55 59
83 83 80 79 85 82 83 84 73 73 72 68 69 67 64 63 61 53 48 44 41 40 34 29 28 25 28 35 43 47 52 56
68 79 81 78 76 81 89 85 76 76 76 72 70 68 66 68 60 54 48 45 42 39 37 32 28 25 27 31 38 44 48 52
37 44 49 59 66 74 80 85 80 77 77 71 71 68 69 63 58 53 48 43 42 42 40 36 31 27 25 28 35 39 44 46
39 41 43 48 47 55 67 84 78 74 68 70 70 67 63 59 57 52 49 45 45 43 43 39 34 30 26 25 31 36 42 43
51 41 40 34 39 44 60 66 70 69 68 68 67 65 63 60 56 55 52 49 47 46 45 42 40 33 27 25 28 32 37 39
55 51 40 36 30 28 42 57 60 60 62 62 63 64 63 62 61 60 56 53 50 49 46 45 42 36 30 25 26 28 33 34
68 57 51 40 32 29 28 29 37 51 59 61 63 63 63 63 61 60 58 54 52 51 50 45 46 39 33 27 26 26 27 32
67 65 59 50 34 31 28 28 32 38 47 55 61 65 66 65 63 62 59 56 51 45 45 43 48 40 35 31 27 25 24 26
61 61 61 59 50 35 31 35 32 37 45 52 59 64 66 66 65 64 63 61 55 52 51 46 45 43 40 35 31 26 22 22
68 59 58 57 58 48 41 39 33 33 40 48 55 60 63 65 66 73 69 67 62 62 56 52 48 46 44 40 35 31 27 20
64 64 54 51 49 47 56 45 40 33 36 46 54 55 55 61 70 73 72 68 62 64 61 58 55 53 51 47 45 40 33 25
62 59 59 54 44 45 51 49 43 45 44 45 47 45 53 63 70 69 66 60 58 56 57 58 60 59 56 56 55 43 39 32
Wind_Direction_850mb
209 207 204 206 208 213 218 222 225 226 228 231 235 239 240 244 252 262 268 268 271 272 274 273 282 297 309 317 323 325 326 323
210 206 201 200 202 206 213 220 226 230 232 235 238 238 240 244 250 259 262 263 266 268 268 267 282 299 311 320 326 326 325 327
214 211 209 207 208 211 216 221 229 235 237 239 239 239 241 243 248 255 257 258 261 262 261 266 282 299 313 321 326 327 326 334
221 218 214 213 213 216 222 226 233 238 240 240 239 238 239 242 246 252 250 252 254 256 256 264 281 300 314 322 327 328 331 334
228 230 227 226 224 224 229 233 241 242 242 240 238 238 240 242 244 245 244 247 250 252 250 261 281 300 314 322 327 331 333 333
234 234 234 235 232 233 237 243 249 247 244 242 239 238 237 238 239 237 240 243 245 247 247 259 280 301 314 323 328 332 333 339
243 246 249 244 239 237 241 250 249 247 246 241 236 234 234 234 233 231 235 238 241 243 245 257 277 298 313 323 330 333 336 337
266 257 261 251 242 241 245 253 254 252 245 239 234 232 231 229 226 228 232 236 239 240 242 252 273 292 310 321 329 333 337 337
283 282 279 268 258 256 253 253 252 248 241 235 231 229 227 224 223 225 229 234 236 237 241 250 267 285 303 318 327 333 337 340
293 287 286 279 272 264 258 248 244 242 239 233 228 225 222 220 221 224 227 230 234 236 242 248 261 278 296 314 324 331 336 341
315 310 297 289 276 267 260 244 237 242 238 232 227 223 220 219 220 223 226 230 232 237 242 249 255 268 284 304 318 327 333 343
325 323 319 310 290 265 256 240 241 247 237 226 222 220 217 218 219 221 225 229 233 237 241 247 252 261 273 293 312 324 332 343
349 344 341 329 307 283 258 247 244 245 228 218 216 214 213 215 217 221 225 229 232 236 238 246 248 252 263 283 303 318 331 343
351 353 355 349 331 302 273 255 248 236 222 216 214 213 213 216 219 223 226 230 233 236 239 243 245 248 255 271 292 310 325 339
350 348 345 349 352 328 292 273 254 228 221 216 215 216 217 221 225 229 232 233 235 235 239 237 242 243 250 260 278 297 317 334
341 340 336 332 339 343 325 284 255 249 239 228 222 222 223 226 231 235 239 242 245 247 246 240 239 242 246 253 266 284 306 323
324 327 331 328 324 334 325 305 268 250 251 241 234 232 231 232 236 240 243 243 244 243 238 236 236 232 239 243 253 265 281 305
313 315 318 320 323 316 311 302 286 254 249 249 244 238 237 239 242 244 244 246 244 242 240 238 240 237 236 238 242 251 262 278
313 311 306 309 319 320 294 282 283 273 252 248 246 243 243 246 248 248 246 243 246 246 242 239 234 234 234 236 237 238 245 254
311 311 308 304 302 302 296 289 276 271 264 256 246 241 242 247 250 249 247 246 249 249 244 239 234 231 232 235 240 238 239 244